| time (UTC) | temp F | wind direction | speed MPH | gust MPH | rain 1hr in | rain 24hr in | rain mn in | humidity % | barometer mb |
| 20260509223303 | 60 | 189 | 1.0 | 4.0 | 0.00 | 0.34 | 0.01 | 87 | 1012.6 |
| 20260509223004 | 61 | 198 | 0.0 | 4.0 | 0.00 | 0.34 | 0.01 | 88 | 1012.7 |
| 20260509222704 | 61 | 188 | 1.0 | 4.0 | 0.00 | 0.34 | 0.01 | 90 | 1012.6 |
| 20260509222404 | 61 | 189 | 1.0 | 4.0 | 0.00 | 0.34 | 0.01 | 91 | 1012.5 |
| 20260509221503 | 61 | 248 | 0.0 | 2.0 | 0.00 | 0.34 | 0.01 | 94 | 1012.6 |
| 20260509221204 | 62 | 248 | 0.0 | 1.0 | 0.00 | 0.34 | 0.01 | 96 | 1012.5 |
| 20260509220904 | 62 | 248 | 0.0 | 1.0 | 0.00 | 0.34 | 0.01 | 97 | 1012.4 |
| 20260509220603 | 62 | 248 | 0.0 | 1.0 | 0.00 | 0.34 | 0.01 | 97 | 1012.6 |
| 20260509220303 | 61 | 0 | 0.0 | 0.0 | 0.00 | 0.34 | 0.01 | 98 | 1012.6 |
| 20260509220004 | 61 | 0 | 0.0 | 0.0 | 0.00 | 0.34 | 0.01 | 98 | 1012.5 |
| 20260509215703 | 60 | 0 | 0.0 | 0.0 | 0.00 | 0.34 | 0.01 | 99 | 1012.6 |
| 20260509215403 | 59 | 0 | 0.0 | 0.0 | 0.00 | 0.34 | 0.01 | 99 | 1012.6 |
| 20260509215104 | 58 | 0 | 0.0 | 0.0 | 0.00 | 0.34 | 0.01 | 99 | 1012.5 |
| 20260509214504 | 55 | 292 | 0.0 | 2.0 | 0.00 | 0.34 | 0.01 | 97 | 1012.6 |
| 20260509214206 | 55 | 292 | 0.0 | 2.0 | 0.00 | 0.34 | 0.01 | 97 | 1012.6 |
| 20260509213904 | 55 | 292 | 0.0 | 2.0 | 0.00 | 0.34 | 0.01 | 97 | 1012.6 |
| 20260509213604 | 55 | 45 | 0.0 | 1.0 | 0.00 | 0.34 | 0.01 | 97 | 1012.8 |
| 20260509213304 | 55 | 45 | 0.0 | 1.0 | 0.00 | 0.34 | 0.01 | 97 | 1012.7 |
| 20260509212704 | 55 | 0 | 0.0 | 0.0 | 0.00 | 0.34 | 0.01 | 97 | 1012.7 |
| 20260509212403 | 55 | 292 | 0.0 | 1.0 | 0.00 | 0.34 | 0.01 | 97 | 1012.7 |
| 20260509212106 | 55 | 348 | 0.0 | 1.0 | 0.00 | 0.34 | 0.01 | 97 | 1012.6 |
| 20260509211803 | 55 | 348 | 0.0 | 1.0 | 0.00 | 0.34 | 0.01 | 97 | 1012.6 |
| 20260509211504 | 55 | 348 | 0.0 | 1.0 | 0.00 | 0.34 | 0.01 | 97 | 1012.6 |
| 20260509211204 | 55 | 45 | 0.0 | 1.0 | 0.00 | 0.34 | 0.01 | 97 | 1012.6 |
| 20260509210903 | 54 | 1 | 0.0 | 1.0 | 0.00 | 0.34 | 0.01 | 97 | 1012.6 |
| 20260509210604 | 54 | 1 | 0.0 | 1.0 | 0.00 | 0.34 | 0.01 | 97 | 1012.6 |
| 20260509210304 | 54 | 1 | 0.0 | 1.0 | 0.00 | 0.34 | 0.01 | 97 | 1012.5 |
| 20260509210004 | 54 | 0 | 0.0 | 0.0 | 0.00 | 0.34 | 0.01 | 97 | 1012.7 |
| 20260509205706 | 53 | 0 | 0.0 | 0.0 | 0.00 | 0.34 | 0.01 | 98 | 1012.6 |
| 20260509205404 | 52 | 0 | 0.0 | 0.0 | 0.00 | 0.34 | 0.01 | 98 | 1012.6 |
| 20260509205103 | 52 | 0 | 0.0 | 0.0 | 0.00 | 0.34 | 0.01 | 99 | 1012.7 |
| 20260509204804 | 51 | 0 | 0.0 | 0.0 | 0.00 | 0.34 | 0.01 | 99 | 1012.7 |
| 20260509204504 | 51 | 0 | 0.0 | 0.0 | 0.00 | 0.34 | 0.01 | 99 | 1012.6 |
| 20260509204204 | 51 | 0 | 0.0 | 0.0 | 0.00 | 0.34 | 0.01 | 99 | 1012.8 |
| 20260509203606 | 51 | 248 | 0.0 | 1.0 | 0.00 | 0.34 | 0.01 | 99 | 1012.5 |
| 20260509203303 | 51 | 248 | 0.0 | 1.0 | 0.00 | 0.34 | 0.01 | 99 | 1012.7 |
| 20260509202705 | 51 | 0 | 0.0 | 0.0 | 0.00 | 0.34 | 0.01 | 99 | 1012.5 |
| 20260509202403 | 51 | 0 | 0.0 | 0.0 | 0.00 | 0.34 | 0.01 | 99 | 1012.5 |
| 20260509202104 | 51 | 0 | 0.0 | 0.0 | 0.00 | 0.34 | 0.01 | 99 | 1012.5 |
| 20260509201503 | 50 | 0 | 0.0 | 0.0 | 0.00 | 0.34 | 0.01 | 99 | 1012.2 |
| 20260509201204 | 50 | 0 | 0.0 | 0.0 | 0.00 | 0.34 | 0.01 | 99 | 1012.2 |
| 20260509200904 | 50 | 0 | 0.0 | 0.0 | 0.00 | 0.34 | 0.01 | 99 | 1012.2 |
| 20260509200604 | 50 | 248 | 0.0 | 1.0 | 0.00 | 0.34 | 0.01 | 99 | 1012.2 |
| 20260509200304 | 50 | 248 | 0.0 | 2.0 | 0.00 | 0.34 | 0.01 | 99 | 1012.1 |
| 20260509200004 | 50 | 236 | 0.0 | 2.0 | 0.00 | 0.34 | 0.01 | 99 | 1012.1 |
| 20260509195704 | 50 | 244 | 0.0 | 2.0 | 0.00 | 0.34 | 0.01 | 99 | 1012.2 |
| 20260509195404 | 50 | 244 | 0.0 | 2.0 | 0.00 | 0.34 | 0.01 | 99 | 1012.1 |
| 20260509195103 | 50 | 244 | 0.0 | 2.0 | 0.00 | 0.34 | 0.01 | 99 | 1012.0 |
| 20260509194804 | 50 | 243 | 1.0 | 2.0 | 0.00 | 0.34 | 0.01 | 99 | 1012.4 |
| 20260509194504 | 50 | 239 | 0.0 | 2.0 | 0.00 | 0.34 | 0.01 | 99 | 1012.1 |
| 20260509194203 | 50 | 206 | 0.0 | 2.0 | 0.00 | 0.34 | 0.01 | 99 | 1012.0 |
| 20260509193603 | 49 | 143 | 0.0 | 2.0 | 0.00 | 0.34 | 0.01 | 99 | 1012.1 |
| 20260509193305 | 49 | 148 | 0.0 | 2.0 | 0.00 | 0.34 | 0.01 | 99 | 1011.9 |
| 20260509193006 | 49 | 191 | 0.0 | 2.0 | 0.00 | 0.34 | 0.01 | 99 | 1012.0 |
| 20260509192705 | 50 | 248 | 0.0 | 2.0 | 0.00 | 0.34 | 0.01 | 99 | 1011.9 |
| 20260509191804 | 50 | 274 | 0.0 | 3.0 | 0.00 | 0.34 | 0.01 | 99 | 1012.0 |
| 20260509191203 | 50 | 135 | 0.0 | 1.0 | 0.00 | 0.34 | 0.01 | 99 | 1011.9 |
| 20260509190904 | 50 | 135 | 0.0 | 1.0 | 0.00 | 0.34 | 0.01 | 99 | 1012.0 |
| 20260509190605 | 50 | 0 | 0.0 | 0.0 | 0.00 | 0.34 | 0.01 | 99 | 1011.8 |
| 20260509190304 | 50 | 0 | 0.0 | 0.0 | 0.00 | 0.34 | 0.01 | 99 | 1011.9 |
| 20260509190004 | 50 | 0 | 0.0 | 0.0 | 0.00 | 0.34 | 0.01 | 99 | 1012.1 |
| 20260509185704 | 50 | 0 | 0.0 | 0.0 | 0.00 | 0.34 | 0.01 | 99 | 1011.8 |
| 20260509185403 | 50 | 0 | 0.0 | 0.0 | 0.00 | 0.34 | 0.01 | 99 | 1011.9 |
| 20260509185106 | 50 | 0 | 0.0 | 0.0 | 0.00 | 0.34 | 0.01 | 99 | 1011.8 |
| 20260509184803 | 50 | 0 | 0.0 | 0.0 | 0.00 | 0.34 | 0.01 | 99 | 1011.9 |
| 20260509184505 | 50 | 0 | 0.0 | 0.0 | 0.00 | 0.34 | 0.01 | 99 | 1011.9 |
| 20260509184204 | 50 | 0 | 0.0 | 0.0 | 0.00 | 0.34 | 0.01 | 99 | 1011.9 |
| 20260509183903 | 50 | 0 | 0.0 | 0.0 | 0.00 | 0.34 | 0.01 | 99 | 1011.9 |
| 20260509183604 | 50 | 0 | 0.0 | 0.0 | 0.00 | 0.34 | 0.01 | 99 | 1011.9 |
| 20260509183303 | 50 | 0 | 0.0 | 0.0 | 0.00 | 0.34 | 0.01 | 99 | 1011.8 |
| 20260509183005 | 50 | 0 | 0.0 | 0.0 | 0.00 | 0.34 | 0.01 | 99 | 1011.6 |
| 20260509182704 | 50 | 0 | 0.0 | 0.0 | 0.00 | 0.34 | 0.01 | 99 | 1011.8 |
| 20260509182404 | 50 | 0 | 0.0 | 0.0 | 0.00 | 0.34 | 0.01 | 99 | 1011.9 |
| 20260509181806 | 50 | 0 | 0.0 | 0.0 | 0.00 | 0.34 | 0.01 | 99 | 1011.7 |
| 20260509181204 | 50 | 0 | 0.0 | 0.0 | 0.00 | 0.34 | 0.01 | 99 | 1011.8 |
| 20260509180904 | 50 | 0 | 0.0 | 0.0 | 0.00 | 0.34 | 0.01 | 99 | 1011.8 |
| 20260509180304 | 50 | 0 | 0.0 | 0.0 | 0.00 | 0.34 | 0.01 | 99 | 1011.9 |
| 20260509180005 | 49 | 0 | 0.0 | 0.0 | 0.00 | 0.34 | 0.01 | 99 | 1011.8 |
| 20260509175703 | 49 | 0 | 0.0 | 0.0 | 0.00 | 0.34 | 0.01 | 99 | 1011.8 |
| 20260509175404 | 49 | 0 | 0.0 | 0.0 | 0.00 | 0.34 | 0.01 | 99 | 1011.8 |
| 20260509175104 | 49 | 0 | 0.0 | 0.0 | 0.00 | 0.34 | 0.01 | 99 | 1011.8 |
| 20260509174804 | 49 | 0 | 0.0 | 0.0 | 0.00 | 0.34 | 0.01 | 99 | 1011.6 |
| 20260509174504 | 49 | 0 | 0.0 | 0.0 | 0.00 | 0.34 | 0.01 | 99 | 1011.8 |
| 20260509174204 | 49 | 0 | 0.0 | 0.0 | 0.00 | 0.34 | 0.01 | 99 | 1011.7 |
| 20260509173903 | 49 | 0 | 0.0 | 0.0 | 0.00 | 0.34 | 0.01 | 99 | 1011.7 |
| 20260509173604 | 49 | 0 | 0.0 | 0.0 | 0.00 | 0.34 | 0.01 | 99 | 1011.9 |
| 20260509173303 | 49 | 0 | 0.0 | 0.0 | 0.00 | 0.34 | 0.01 | 99 | 1011.9 |
| 20260509173004 | 49 | 0 | 0.0 | 0.0 | 0.00 | 0.34 | 0.01 | 99 | 1011.7 |
| 20260509172704 | 49 | 0 | 0.0 | 0.0 | 0.00 | 0.34 | 0.01 | 99 | 1011.7 |
| 20260509172403 | 49 | 0 | 0.0 | 0.0 | 0.00 | 0.34 | 0.01 | 99 | 1011.6 |
| 20260509172104 | 49 | 0 | 0.0 | 0.0 | 0.00 | 0.34 | 0.01 | 99 | 1011.6 |
| 20260509171803 | 49 | 0 | 0.0 | 0.0 | 0.00 | 0.34 | 0.01 | 99 | 1011.7 |
| 20260509171504 | 49 | 0 | 0.0 | 0.0 | 0.00 | 0.34 | 0.01 | 99 | 1011.5 |
| 20260509171203 | 49 | 0 | 0.0 | 0.0 | 0.00 | 0.34 | 0.01 | 99 | 1011.6 |
| 20260509170907 | 49 | 0 | 0.0 | 0.0 | 0.00 | 0.34 | 0.01 | 99 | 1011.9 |
| 20260509170603 | 49 | 0 | 0.0 | 0.0 | 0.00 | 0.34 | 0.01 | 99 | 1011.8 |
| 20260509170304 | 49 | 348 | 0.0 | 2.0 | 0.01 | 0.34 | 0.01 | 99 | 1011.7 |
| 20260509170006 | 49 | 26 | 0.0 | 3.0 | 0.01 | 0.34 | 0.01 | 99 | 1011.8 |
| 20260509165704 | 49 | 26 | 0.0 | 3.0 | 0.01 | 0.34 | 0.01 | 99 | 1011.8 |
| 20260509165404 | 49 | 26 | 0.0 | 3.0 | 0.01 | 0.34 | 0.01 | 99 | 1011.7 |
| 20260509165103 | 49 | 314 | 1.0 | 2.0 | 0.01 | 0.34 | 0.01 | 99 | 1011.7 |
| 20260509164804 | 49 | 0 | 0.0 | 0.0 | 0.01 | 0.34 | 0.01 | 99 | 1011.5 |
| 20260509164503 | 49 | 0 | 0.0 | 0.0 | 0.01 | 0.34 | 0.01 | 99 | 1011.4 |
| 20260509164203 | 49 | 0 | 0.0 | 0.0 | 0.01 | 0.34 | 0.01 | 99 | 1011.6 |
| 20260509163604 | 49 | 0 | 0.0 | 0.0 | 0.01 | 0.34 | 0.01 | 99 | 1011.6 |
| 20260509163304 | 49 | 0 | 0.0 | 0.0 | 0.01 | 0.34 | 0.01 | 99 | 1011.4 |
| 20260509163004 | 49 | 0 | 0.0 | 0.0 | 0.01 | 0.34 | 0.01 | 99 | 1011.4 |
| 20260509162704 | 49 | 0 | 0.0 | 0.0 | 0.01 | 0.34 | 0.01 | 99 | 1011.7 |
| 20260509162104 | 49 | 0 | 0.0 | 0.0 | 0.01 | 0.34 | 0.01 | 99 | 1011.8 |
| 20260509161803 | 49 | 0 | 0.0 | 0.0 | 0.01 | 0.34 | 0.01 | 99 | 1011.8 |
| 20260509161504 | 49 | 0 | 0.0 | 0.0 | 0.01 | 0.34 | 0.01 | 99 | 1011.8 |
| 20260509161203 | 49 | 0 | 0.0 | 0.0 | 0.01 | 0.34 | 0.01 | 99 | 1011.9 |
| 20260509160904 | 49 | 0 | 0.0 | 0.0 | 0.01 | 0.34 | 0.01 | 99 | 1011.9 |
| 20260509160604 | 49 | 0 | 0.0 | 0.0 | 0.01 | 0.34 | 0.01 | 99 | 1011.6 |
| 20260509160304 | 49 | 1 | 0.0 | 1.0 | 0.00 | 0.33 | 0.00 | 99 | 1011.7 |
| 20260509160004 | 49 | 1 | 0.0 | 1.0 | 0.00 | 0.33 | 0.00 | 99 | 1011.7 |
| 20260509155704 | 49 | 1 | 0.0 | 1.0 | 0.00 | 0.33 | 0.00 | 99 | 1011.7 |
| 20260509155404 | 49 | 0 | 0.0 | 0.0 | 0.00 | 0.33 | 0.00 | 99 | 1011.7 |
| 20260509155103 | 49 | 0 | 0.0 | 0.0 | 0.00 | 0.33 | 0.00 | 99 | 1011.6 |
| 20260509154504 | 50 | 0 | 0.0 | 0.0 | 0.00 | 0.33 | 0.00 | 99 | 1011.6 |
| 20260509154203 | 50 | 0 | 0.0 | 0.0 | 0.00 | 0.33 | 0.00 | 99 | 1011.7 |
| 20260509153905 | 50 | 0 | 0.0 | 0.0 | 0.00 | 0.33 | 0.00 | 99 | 1011.5 |
| 20260509153604 | 50 | 0 | 0.0 | 0.0 | 0.00 | 0.33 | 0.00 | 99 | 1011.5 |
| 20260509153306 | 50 | 0 | 0.0 | 0.0 | 0.00 | 0.33 | 0.00 | 99 | 1011.5 |
| 20260509153004 | 50 | 0 | 0.0 | 0.0 | 0.00 | 0.33 | 0.00 | 99 | 1011.6 |
| 20260509152405 | 50 | 0 | 0.0 | 0.0 | 0.00 | 0.33 | 0.00 | 99 | 1011.5 |
| 20260509152106 | 50 | 0 | 0.0 | 0.0 | 0.00 | 0.33 | 0.00 | 99 | 1011.5 |
| 20260509151805 | 50 | 0 | 0.0 | 0.0 | 0.00 | 0.33 | 0.00 | 99 | 1011.5 |
| 20260509151504 | 50 | 0 | 0.0 | 0.0 | 0.00 | 0.33 | 0.00 | 99 | 1011.5 |
| 20260509151204 | 50 | 0 | 0.0 | 0.0 | 0.00 | 0.33 | 0.00 | 99 | 1011.7 |
| 20260509150904 | 50 | 0 | 0.0 | 0.0 | 0.00 | 0.33 | 0.00 | 99 | 1011.8 |
| 20260509150603 | 50 | 0 | 0.0 | 0.0 | 0.00 | 0.33 | 0.00 | 99 | 1011.8 |
| 20260509150305 | 50 | 0 | 0.0 | 0.0 | 0.00 | 0.33 | 0.00 | 99 | 1011.6 |
| 20260509150003 | 50 | 0 | 0.0 | 0.0 | 0.00 | 0.33 | 0.00 | 99 | 1011.8 |
| 20260509145704 | 50 | 0 | 0.0 | 0.0 | 0.00 | 0.33 | 0.00 | 99 | 1011.8 |
| 20260509145403 | 50 | 0 | 0.0 | 0.0 | 0.00 | 0.33 | 0.00 | 99 | 1012.0 |
| 20260509145104 | 50 | 0 | 0.0 | 0.0 | 0.00 | 0.33 | 0.00 | 99 | 1012.1 |
| 20260509144504 | 50 | 0 | 0.0 | 0.0 | 0.00 | 0.33 | 0.00 | 99 | 1012.0 |
| 20260509144204 | 50 | 0 | 0.0 | 0.0 | 0.00 | 0.33 | 0.00 | 99 | 1012.0 |
| 20260509143904 | 50 | 0 | 0.0 | 0.0 | 0.00 | 0.33 | 0.00 | 99 | 1012.0 |
| 20260509143304 | 50 | 0 | 0.0 | 0.0 | 0.00 | 0.33 | 0.00 | 99 | 1012.1 |
| 20260509143005 | 50 | 0 | 0.0 | 0.0 | 0.00 | 0.33 | 0.00 | 99 | 1012.0 |
| 20260509142703 | 50 | 0 | 0.0 | 0.0 | 0.00 | 0.33 | 0.00 | 99 | 1012.1 |
| 20260509141803 | 50 | 0 | 0.0 | 0.0 | 0.00 | 0.33 | 0.00 | 99 | 1011.9 |
| 20260509141504 | 51 | 0 | 0.0 | 0.0 | 0.00 | 0.33 | 0.00 | 99 | 1012.0 |
| 20260509140904 | 51 | 0 | 0.0 | 0.0 | 0.00 | 0.33 | 0.00 | 99 | 1012.2 |
| 20260509140604 | 51 | 181 | 0.0 | 1.0 | 0.00 | 0.33 | 0.00 | 99 | 1012.3 |
| 20260509140304 | 51 | 225 | 0.0 | 1.0 | 0.00 | 0.33 | 0.00 | 99 | 1012.2 |
| 20260509140005 | 51 | 225 | 0.0 | 1.0 | 0.00 | 0.33 | 0.00 | 99 | 1012.2 |
| 20260509135705 | 51 | 225 | 0.0 | 1.0 | 0.00 | 0.33 | 0.00 | 99 | 1012.3 |
| 20260509135404 | 51 | 0 | 0.0 | 0.0 | 0.00 | 0.33 | 0.00 | 99 | 1012.3 |
| 20260509135105 | 51 | 0 | 0.0 | 0.0 | 0.00 | 0.33 | 0.00 | 99 | 1012.3 |
| 20260509134805 | 51 | 0 | 0.0 | 0.0 | 0.00 | 0.33 | 0.00 | 99 | 1012.3 |
| 20260509134504 | 51 | 0 | 0.0 | 0.0 | 0.00 | 0.33 | 0.00 | 99 | 1012.3 |
| 20260509134204 | 51 | 0 | 0.0 | 0.0 | 0.00 | 0.33 | 0.00 | 99 | 1012.3 |
| 20260509133904 | 51 | 0 | 0.0 | 0.0 | 0.00 | 0.33 | 0.00 | 99 | 1012.2 |
| 20260509133604 | 51 | 0 | 0.0 | 0.0 | 0.00 | 0.33 | 0.00 | 99 | 1012.4 |
| 20260509133306 | 51 | 0 | 0.0 | 0.0 | 0.00 | 0.33 | 0.00 | 99 | 1012.5 |
| 20260509133004 | 51 | 0 | 0.0 | 0.0 | 0.00 | 0.33 | 0.00 | 99 | 1012.4 |
| 20260509132704 | 51 | 0 | 0.0 | 0.0 | 0.00 | 0.33 | 0.00 | 99 | 1012.4 |
| 20260509132404 | 51 | 0 | 0.0 | 0.0 | 0.00 | 0.33 | 0.00 | 99 | 1012.5 |
| 20260509131804 | 51 | 0 | 0.0 | 0.0 | 0.00 | 0.33 | 0.00 | 99 | 1012.4 |
| 20260509131204 | 51 | 0 | 0.0 | 0.0 | 0.00 | 0.33 | 0.00 | 99 | 1012.5 |
| 20260509130903 | 51 | 0 | 0.0 | 0.0 | 0.00 | 0.33 | 0.00 | 99 | 1012.6 |
| 20260509130604 | 51 | 0 | 0.0 | 0.0 | 0.00 | 0.33 | 0.00 | 99 | 1012.4 |
| 20260509130004 | 51 | 0 | 0.0 | 0.0 | 0.00 | 0.33 | 0.00 | 99 | 1012.4 |
| 20260509125704 | 51 | 0 | 0.0 | 0.0 | 0.00 | 0.33 | 0.00 | 99 | 1012.5 |
| 20260509125104 | 51 | 0 | 0.0 | 0.0 | 0.00 | 0.33 | 0.00 | 99 | 1012.5 |
| 20260509124804 | 51 | 0 | 0.0 | 0.0 | 0.00 | 0.33 | 0.00 | 99 | 1012.5 |
| 20260509124503 | 51 | 0 | 0.0 | 0.0 | 0.00 | 0.33 | 0.00 | 99 | 1012.5 |
| 20260509124204 | 51 | 0 | 0.0 | 0.0 | 0.00 | 0.33 | 0.00 | 99 | 1012.5 |
| 20260509123906 | 51 | 0 | 0.0 | 0.0 | 0.00 | 0.33 | 0.00 | 99 | 1012.5 |
| 20260509123603 | 51 | 0 | 0.0 | 0.0 | 0.00 | 0.34 | 0.00 | 99 | 1012.5 |
| 20260509122403 | 51 | 1 | 0.0 | 1.0 | 0.00 | 0.34 | 0.00 | 99 | 1012.6 |
| 20260509122104 | 51 | 1 | 0.0 | 1.0 | 0.00 | 0.34 | 0.00 | 99 | 1012.6 |
| 20260509121504 | 51 | 0 | 0.0 | 0.0 | 0.00 | 0.35 | 0.00 | 99 | 1012.5 |
| 20260509121204 | 51 | 0 | 0.0 | 0.0 | 0.00 | 0.37 | 0.00 | 99 | 1012.6 |
| 20260509120904 | 51 | 0 | 0.0 | 0.0 | 0.00 | 0.37 | 0.00 | 99 | 1012.7 |
| 20260509120603 | 51 | 0 | 0.0 | 0.0 | 0.00 | 0.38 | 0.00 | 99 | 1012.6 |
| 20260509120304 | 51 | 0 | 0.0 | 0.0 | 0.00 | 0.43 | 0.00 | 99 | 1012.6 |
| 20260509120005 | 51 | 1 | 0.0 | 1.0 | 0.00 | 0.48 | 0.00 | 99 | 1012.5 |
| 20260509115405 | 51 | 11 | 0.0 | 2.0 | 0.00 | 0.51 | 0.48 | 99 | 1012.6 |
| 20260509115104 | 51 | 12 | 0.0 | 2.0 | 0.00 | 0.51 | 0.48 | 99 | 1012.6 |
| 20260509114804 | 51 | 14 | 0.0 | 2.0 | 0.00 | 0.52 | 0.48 | 99 | 1012.7 |
| 20260509114504 | 51 | 314 | 0.0 | 1.0 | 0.00 | 0.52 | 0.48 | 99 | 1012.6 |
| 20260509114204 | 51 | 265 | 0.0 | 2.0 | 0.00 | 0.53 | 0.48 | 99 | 1012.5 |
| 20260509113903 | 51 | 253 | 0.0 | 2.0 | 0.00 | 0.54 | 0.48 | 99 | 1012.5 |
| 20260509113605 | 51 | 262 | 0.0 | 2.0 | 0.00 | 0.56 | 0.48 | 99 | 1012.5 |
| 20260509113304 | 51 | 264 | 0.0 | 2.0 | 0.00 | 0.57 | 0.48 | 99 | 1012.4 |
| 20260509113004 | 51 | 270 | 1.0 | 2.0 | 0.00 | 0.57 | 0.48 | 99 | 1012.4 |
| 20260509112704 | 51 | 278 | 0.0 | 1.0 | 0.00 | 0.58 | 0.48 | 99 | 1012.4 |
| 20260509112104 | 51 | 248 | 0.0 | 1.0 | 0.00 | 0.59 | 0.48 | 99 | 1012.3 |
| 20260509111804 | 51 | 135 | 0.0 | 1.0 | 0.00 | 0.60 | 0.48 | 99 | 1012.4 |
| 20260509111504 | 51 | 135 | 0.0 | 1.0 | 0.00 | 0.60 | 0.48 | 99 | 1012.2 |
| 20260509111204 | 51 | 142 | 0.0 | 1.0 | 0.00 | 0.61 | 0.48 | 99 | 1012.3 |
| 20260509110904 | 51 | 147 | 0.0 | 1.0 | 0.00 | 0.63 | 0.48 | 99 | 1012.5 |
| 20260509110604 | 51 | 163 | 0.0 | 1.0 | 0.00 | 0.64 | 0.48 | 99 | 1012.3 |
| 20260509110304 | 51 | 181 | 0.0 | 1.0 | 0.00 | 0.64 | 0.48 | 99 | 1012.4 |
| 20260509110004 | 51 | 0 | 0.0 | 0.0 | 0.00 | 0.65 | 0.48 | 99 | 1012.4 |
| 20260509105704 | 51 | 0 | 0.0 | 0.0 | 0.00 | 0.66 | 0.48 | 99 | 1012.4 |
| 20260509105403 | 52 | 181 | 0.0 | 1.0 | 0.00 | 0.67 | 0.48 | 99 | 1012.4 |
| 20260509104803 | 52 | 64 | 0.0 | 2.0 | 0.00 | 0.70 | 0.48 | 98 | 1012.4 |
| 20260509104504 | 52 | 50 | 0.0 | 2.0 | 0.00 | 0.71 | 0.48 | 98 | 1012.5 |
| 20260509104203 | 52 | 45 | 0.0 | 2.0 | 0.00 | 0.72 | 0.48 | 98 | 1012.5 |
| 20260509103904 | 53 | 31 | 0.0 | 2.0 | 0.00 | 0.73 | 0.48 | 98 | 1012.4 |
| 20260509103605 | 53 | 6 | 0.0 | 1.0 | 0.00 | 0.73 | 0.48 | 98 | 1012.5 |
| 20260509103304 | 53 | 1 | 0.0 | 2.0 | 0.00 | 0.76 | 0.48 | 98 | 1012.5 |
| 20260509103003 | 53 | 1 | 0.0 | 2.0 | 0.00 | 0.76 | 0.48 | 98 | 1012.6 |
| 20260509102707 | 53 | 1 | 0.0 | 2.0 | 0.00 | 0.76 | 0.48 | 98 | 1012.7 |
| 20260509102404 | 53 | 1 | 0.0 | 2.0 | 0.00 | 0.76 | 0.48 | 98 | 1012.6 |
| 20260509102104 | 53 | 0 | 0.0 | 0.0 | 0.00 | 0.77 | 0.48 | 98 | 1012.6 |
| 20260509101504 | 53 | 135 | 0.0 | 1.0 | 0.00 | 0.79 | 0.48 | 98 | 1012.6 |
| 20260509100904 | 54 | 0 | 0.0 | 0.0 | 0.00 | 0.83 | 0.48 | 97 | 1012.5 |
| 20260509100603 | 54 | 0 | 0.0 | 0.0 | 0.00 | 0.83 | 0.48 | 97 | 1012.5 |
| 20260509100304 | 54 | 0 | 0.0 | 0.0 | 0.00 | 0.85 | 0.48 | 97 | 1012.6 |
| 20260509100005 | 54 | 0 | 0.0 | 0.0 | 0.00 | 0.87 | 0.48 | 97 | 1012.5 |
| 20260509095704 | 54 | 0 | 0.0 | 0.0 | 0.00 | 0.90 | 0.48 | 97 | 1012.6 |
| 20260509095406 | 54 | 0 | 0.0 | 0.0 | 0.00 | 0.90 | 0.48 | 97 | 1012.5 |
| 20260509095105 | 54 | 248 | 0.0 | 1.0 | 0.00 | 0.90 | 0.48 | 97 | 1012.6 |
| 20260509094803 | 54 | 192 | 0.0 | 1.0 | 0.00 | 0.90 | 0.48 | 97 | 1012.4 |
| 20260509094203 | 54 | 154 | 0.0 | 2.0 | 0.00 | 0.90 | 0.48 | 97 | 1012.4 |
| 20260509093604 | 54 | 147 | 0.0 | 2.0 | 0.00 | 0.90 | 0.48 | 97 | 1012.4 |
| 20260509093304 | 54 | 0 | 0.0 | 0.0 | 0.00 | 0.90 | 0.48 | 97 | 1012.3 |
| 20260509093006 | 54 | 0 | 0.0 | 0.0 | 0.00 | 0.90 | 0.48 | 97 | 1012.3 |
| 20260509092704 | 54 | 0 | 0.0 | 0.0 | 0.00 | 0.92 | 0.48 | 97 | 1012.3 |
| 20260509092403 | 54 | 0 | 0.0 | 0.0 | 0.00 | 0.93 | 0.48 | 97 | 1012.3 |
| 20260509092106 | 54 | 0 | 0.0 | 0.0 | 0.00 | 0.93 | 0.48 | 97 | 1012.2 |
| 20260509091804 | 54 | 0 | 0.0 | 0.0 | 0.01 | 0.93 | 0.48 | 97 | 1012.4 |
| 20260509091204 | 54 | 181 | 0.0 | 2.0 | 0.07 | 0.93 | 0.48 | 97 | 1012.4 |
| 20260509090604 | 54 | 181 | 0.0 | 2.0 | 0.07 | 0.93 | 0.48 | 97 | 1012.2 |
| 20260509090005 | 54 | 231 | 0.0 | 2.0 | 0.07 | 0.94 | 0.48 | 97 | 1012.2 |
| 20260509085704 | 54 | 260 | 0.0 | 2.0 | 0.07 | 0.94 | 0.48 | 97 | 1012.1 |
| 20260509085404 | 55 | 274 | 0.0 | 3.0 | 0.07 | 0.94 | 0.48 | 97 | 1012.3 |
| 20260509085103 | 55 | 278 | 0.0 | 3.0 | 0.07 | 0.94 | 0.48 | 97 | 1012.2 |
| 20260509084804 | 55 | 272 | 2.0 | 3.0 | 0.07 | 0.96 | 0.48 | 97 | 1012.3 |
| 20260509084504 | 55 | 272 | 1.0 | 4.0 | 0.07 | 0.96 | 0.48 | 97 | 1012.1 |
| 20260509083903 | 55 | 249 | 1.0 | 4.0 | 0.07 | 0.98 | 0.48 | 97 | 1012.2 |
| 20260509083604 | 55 | 231 | 2.0 | 5.0 | 0.07 | 0.99 | 0.48 | 97 | 1012.1 |
| 20260509083004 | 55 | 186 | 2.0 | 5.0 | 0.07 | 0.99 | 0.48 | 97 | 1012.2 |
| 20260509082703 | 55 | 160 | 2.0 | 9.0 | 0.07 | 0.99 | 0.48 | 97 | 1012.2 |
| 20260509081804 | 55 | 136 | 3.0 | 10.0 | 0.04 | 0.97 | 0.46 | 97 | 1012.1 |
| 20260509081504 | 55 | 140 | 7.0 | 10.0 | 0.00 | 0.93 | 0.41 | 97 | 1012.1 |
| 20260509081206 | 54 | 135 | 4.0 | 4.0 | 0.00 | 0.93 | 0.41 | 97 | 1012.1 |
| 20260509080904 | 54 | 0 | 0.0 | 0.0 | 0.00 | 0.93 | 0.41 | 97 | 1012.0 |
| 20260509080604 | 54 | 0 | 0.0 | 0.0 | 0.00 | 0.93 | 0.41 | 97 | 1012.1 |
| 20260509080304 | 54 | 0 | 0.0 | 0.0 | 0.00 | 0.93 | 0.41 | 97 | 1012.1 |
| 20260509080005 | 54 | 0 | 0.0 | 0.0 | 0.00 | 0.93 | 0.41 | 97 | 1012.2 |
| 20260509075704 | 54 | 0 | 0.0 | 0.0 | 0.00 | 0.93 | 0.41 | 97 | 1012.1 |
| 20260509075404 | 54 | 0 | 0.0 | 0.0 | 0.00 | 0.93 | 0.41 | 97 | 1012.0 |
| 20260509075103 | 54 | 0 | 0.0 | 0.0 | 0.00 | 0.93 | 0.41 | 97 | 1012.2 |
| 20260509074804 | 54 | 0 | 0.0 | 0.0 | 0.00 | 0.93 | 0.41 | 97 | 1012.1 |
| 20260509074504 | 54 | 0 | 0.0 | 0.0 | 0.00 | 0.93 | 0.41 | 97 | 1012.0 |
| 20260509074204 | 54 | 0 | 0.0 | 0.0 | 0.00 | 0.93 | 0.41 | 97 | 1012.0 |
| 20260509073904 | 54 | 0 | 0.0 | 0.0 | 0.00 | 0.93 | 0.41 | 97 | 1011.8 |
| 20260509073304 | 54 | 0 | 0.0 | 0.0 | 0.00 | 0.93 | 0.41 | 97 | 1011.8 |
| 20260509072704 | 54 | 0 | 0.0 | 0.0 | 0.00 | 0.93 | 0.41 | 97 | 1011.8 |
| 20260509072404 | 54 | 0 | 0.0 | 0.0 | 0.00 | 0.93 | 0.41 | 97 | 1011.8 |
| 20260509072103 | 54 | 0 | 0.0 | 0.0 | 0.00 | 0.93 | 0.41 | 96 | 1011.8 |
| 20260509071505 | 54 | 0 | 0.0 | 0.0 | 0.00 | 0.93 | 0.41 | 96 | 1011.8 |
| 20260509071204 | 54 | 0 | 0.0 | 0.0 | 0.00 | 0.93 | 0.41 | 96 | 1011.9 |
| 20260509070903 | 55 | 0 | 0.0 | 0.0 | 0.00 | 0.93 | 0.41 | 96 | 1011.8 |
| 20260509070603 | 54 | 0 | 0.0 | 0.0 | 0.00 | 0.93 | 0.41 | 96 | 1011.7 |
| 20260509070305 | 55 | 0 | 0.0 | 0.0 | 0.00 | 0.94 | 0.41 | 96 | 1011.7 |
| 20260509070003 | 55 | 0 | 0.0 | 0.0 | 0.00 | 0.94 | 0.41 | 95 | 1012.0 |
| 20260509065704 | 55 | 0 | 0.0 | 0.0 | 0.00 | 0.94 | 0.41 | 95 | 1011.8 |
| 20260509065103 | 54 | 0 | 0.0 | 0.0 | 0.00 | 0.94 | 0.41 | 95 | 1011.7 |
| 20260509064505 | 55 | 0 | 0.0 | 0.0 | 0.00 | 0.94 | 0.41 | 94 | 1011.8 |
| 20260509064204 | 55 | 0 | 0.0 | 0.0 | 0.00 | 0.94 | 0.41 | 94 | 1011.9 |
| 20260509063604 | 55 | 0 | 0.0 | 0.0 | 0.00 | 0.94 | 0.41 | 94 | 1011.6 |
| 20260509063303 | 55 | 0 | 0.0 | 0.0 | 0.00 | 0.94 | 0.41 | 94 | 1011.6 |
| 20260509063004 | 55 | 0 | 0.0 | 0.0 | 0.00 | 0.94 | 0.41 | 94 | 1011.5 |
| 20260509062704 | 55 | 0 | 0.0 | 0.0 | 0.00 | 0.94 | 0.41 | 95 | 1011.4 |
| 20260509062403 | 56 | 0 | 0.0 | 0.0 | 0.00 | 0.94 | 0.41 | 95 | 1011.4 |
| 20260509062104 | 56 | 0 | 0.0 | 0.0 | 0.00 | 0.94 | 0.41 | 94 | 1011.4 |
| 20260509061803 | 56 | 0 | 0.0 | 0.0 | 0.00 | 0.94 | 0.41 | 94 | 1011.3 |
| 20260509061505 | 56 | 0 | 0.0 | 0.0 | 0.00 | 0.94 | 0.41 | 94 | 1011.5 |
| 20260509061204 | 56 | 0 | 0.0 | 0.0 | 0.00 | 0.94 | 0.41 | 94 | 1011.5 |
| 20260509060906 | 56 | 0 | 0.0 | 0.0 | 0.00 | 0.94 | 0.41 | 94 | 1011.3 |
| 20260509060303 | 56 | 0 | 0.0 | 0.0 | 0.00 | 0.94 | 0.41 | 93 | 1011.6 |
| 20260509060004 | 56 | 0 | 0.0 | 0.0 | 0.00 | 0.94 | 0.41 | 93 | 1011.5 |
| 20260509055704 | 56 | 0 | 0.0 | 0.0 | 0.00 | 0.94 | 0.41 | 93 | 1011.5 |
| 20260509055106 | 56 | 0 | 0.0 | 0.0 | 0.00 | 0.94 | 0.41 | 93 | 1011.6 |
| 20260509054803 | 57 | 0 | 0.0 | 0.0 | 0.00 | 0.94 | 0.41 | 93 | 1011.5 |
| 20260509054203 | 57 | 178 | 0.0 | 2.0 | 0.00 | 0.94 | 0.41 | 93 | 1011.5 |
| 20260509053904 | 57 | 198 | 0.0 | 4.0 | 0.00 | 0.94 | 0.41 | 92 | 1011.5 |
| 20260509053603 | 58 | 225 | 0.0 | 6.0 | 0.00 | 0.94 | 0.41 | 92 | 1011.7 |
| 20260509053303 | 58 | 244 | 2.0 | 6.0 | 0.00 | 0.94 | 0.41 | 92 | 1011.7 |
| 20260509053004 | 58 | 252 | 3.0 | 6.0 | 0.00 | 0.94 | 0.41 | 91 | 1011.6 |
| 20260509052704 | 58 | 263 | 2.0 | 5.0 | 0.00 | 0.94 | 0.41 | 91 | 1011.8 |
| 20260509052405 | 58 | 266 | 2.0 | 7.0 | 0.00 | 0.94 | 0.41 | 91 | 1011.7 |
| 20260509052103 | 58 | 267 | 2.0 | 7.0 | 0.00 | 0.94 | 0.41 | 91 | 1011.6 |
| 20260509051805 | 58 | 258 | 2.0 | 7.0 | 0.00 | 0.94 | 0.41 | 91 | 1011.6 |
| 20260509051504 | 58 | 243 | 3.0 | 5.0 | 0.00 | 0.94 | 0.41 | 91 | 1011.6 |
| 20260509051204 | 59 | 231 | 0.0 | 5.0 | 0.00 | 0.94 | 0.41 | 90 | 1011.5 |
| 20260509050904 | 59 | 237 | 2.0 | 5.0 | 0.00 | 0.94 | 0.41 | 90 | 1011.6 |
| 20260509050604 | 59 | 231 | 2.0 | 2.0 | 0.00 | 0.94 | 0.41 | 90 | 1011.6 |
| 20260509050003 | 59 | 231 | 0.0 | 3.0 | 0.00 | 0.94 | 0.41 | 89 | 1011.6 |
| 20260509045405 | 59 | 241 | 1.0 | 3.0 | 0.00 | 0.94 | 0.41 | 89 | 1011.5 |
| 20260509045104 | 59 | 250 | 0.0 | 4.0 | 0.00 | 0.94 | 0.41 | 89 | 1011.6 |
| 20260509044204 | 59 | 227 | 2.0 | 4.0 | 0.00 | 0.94 | 0.41 | 90 | 1011.7 |
| 20260509043604 | 59 | 217 | 1.0 | 4.0 | 0.00 | 0.94 | 0.41 | 89 | 1011.6 |
| 20260509043303 | 60 | 243 | 0.0 | 3.0 | 0.00 | 0.94 | 0.41 | 88 | 1011.7 |
| 20260509043004 | 60 | 261 | 0.0 | 3.0 | 0.00 | 0.94 | 0.41 | 87 | 1011.7 |
| 20260509042704 | 60 | 269 | 1.0 | 3.0 | 0.00 | 0.94 | 0.41 | 87 | 1011.6 |
| 20260509042403 | 60 | 282 | 2.0 | 3.0 | 0.00 | 0.94 | 0.41 | 86 | 1011.6 |
| 20260509042103 | 60 | 270 | 1.0 | 3.0 | 0.00 | 0.94 | 0.41 | 85 | 1011.7 |
| 20260509041804 | 61 | 240 | 0.0 | 1.0 | 0.00 | 0.94 | 0.41 | 84 | 1011.8 |
| 20260509041504 | 61 | 264 | 0.0 | 1.0 | 0.00 | 0.94 | 0.41 | 83 | 1011.7 |
| 20260509041204 | 61 | 322 | 0.0 | 2.0 | 0.00 | 0.94 | 0.41 | 83 | 1011.8 |
| 20260509040904 | 61 | 321 | 0.0 | 2.0 | 0.00 | 0.94 | 0.41 | 83 | 1011.7 |
| 20260509040604 | 61 | 313 | 0.0 | 2.0 | 0.00 | 0.94 | 0.41 | 84 | 1011.7 |
| 20260509040004 | 61 | 264 | 0.0 | 2.0 | 0.00 | 0.94 | 0.41 | 83 | 1011.9 |
| 20260509035706 | 61 | 284 | 1.0 | 3.0 | 0.00 | 0.94 | 0.41 | 81 | 1011.9 |
| 20260509035406 | 61 | 271 | 0.0 | 4.0 | 0.00 | 0.94 | 0.41 | 81 | 1011.9 |
| 20260509034804 | 62 | 269 | 1.0 | 4.0 | 0.00 | 0.94 | 0.41 | 79 | 1011.8 |
| 20260509034506 | 62 | 247 | 2.0 | 5.0 | 0.00 | 0.94 | 0.41 | 79 | 1011.7 |
| 20260509034204 | 62 | 230 | 1.0 | 5.0 | 0.00 | 0.94 | 0.41 | 78 | 1011.6 |
| 20260509033903 | 63 | 217 | 2.0 | 6.0 | 0.00 | 0.94 | 0.41 | 76 | 1011.4 |
| 20260509033303 | 64 | 208 | 3.0 | 6.0 | 0.00 | 0.94 | 0.41 | 77 | 1011.6 |
| 20260509033004 | 63 | 217 | 2.0 | 5.0 | 0.00 | 0.94 | 0.41 | 77 | 1011.7 |
| 20260509032703 | 64 | 234 | 3.0 | 5.0 | 0.02 | 0.94 | 0.41 | 78 | 1011.6 |
| 20260509031804 | 62 | 196 | 4.0 | 5.0 | 0.09 | 0.94 | 0.41 | 84 | 1011.9 |
| 20260509031503 | 61 | 213 | 2.0 | 7.0 | 0.15 | 0.94 | 0.41 | 83 | 1011.7 |
| 20260509031204 | 60 | 206 | 4.0 | 7.0 | 0.15 | 0.94 | 0.41 | 84 | 1011.8 |
| 20260509030903 | 60 | 211 | 1.0 | 7.0 | 0.17 | 0.94 | 0.41 | 84 | 1011.8 |
| 20260509030604 | 60 | 203 | 4.0 | 7.0 | 0.17 | 0.94 | 0.41 | 84 | 1011.7 |
| 20260509025404 | 60 | 223 | 4.0 | 8.0 | 0.17 | 0.94 | 0.41 | 90 | 1011.8 |
| 20260509025104 | 61 | 217 | 2.0 | 5.0 | 0.17 | 0.94 | 0.41 | 90 | 1011.9 |
| 20260509024804 | 61 | 200 | 3.0 | 8.0 | 0.17 | 0.94 | 0.41 | 90 | 1011.8 |
| 20260509024503 | 61 | 200 | 2.0 | 8.0 | 0.17 | 0.94 | 0.41 | 91 | 1011.9 |
| 20260509023904 | 60 | 201 | 4.0 | 8.0 | 0.17 | 0.94 | 0.41 | 91 | 1012.0 |
| 20260509023604 | 59 | 211 | 4.0 | 7.0 | 0.17 | 0.94 | 0.41 | 90 | 1012.2 |
| 20260509023305 | 60 | 229 | 2.0 | 5.0 | 0.17 | 0.94 | 0.41 | 90 | 1012.3 |
| 20260509023005 | 60 | 208 | 2.0 | 6.0 | 0.15 | 0.93 | 0.40 | 89 | 1012.2 |
| 20260509022704 | 60 | 184 | 1.0 | 8.0 | 0.14 | 0.92 | 0.39 | 87 | 1012.2 |
| 20260509022404 | 60 | 171 | 1.0 | 8.0 | 0.12 | 0.90 | 0.37 | 85 | 1012.3 |
| 20260509021504 | 62 | 183 | 7.0 | 8.0 | 0.01 | 0.79 | 0.26 | 78 | 1012.2 |
| 20260509021203 | 63 | 151 | 2.0 | 5.0 | 0.00 | 0.78 | 0.25 | 77 | 1012.2 |
| 20260509020904 | 64 | 135 | 2.0 | 4.0 | 0.01 | 0.78 | 0.25 | 76 | 1012.0 |
| 20260509020603 | 64 | 314 | 0.0 | 1.0 | 0.01 | 0.78 | 0.25 | 76 | 1012.1 |
| 20260509020304 | 64 | 314 | 0.0 | 1.0 | 0.04 | 0.78 | 0.25 | 76 | 1012.1 |
| 20260509020004 | 64 | 314 | 0.0 | 1.0 | 0.04 | 0.78 | 0.25 | 76 | 1012.1 |
| 20260509015703 | 64 | 314 | 0.0 | 1.0 | 0.06 | 0.78 | 0.25 | 75 | 1012.1 |
| 20260509015405 | 64 | 314 | 0.0 | 1.0 | 0.09 | 0.78 | 0.25 | 76 | 1012.1 |
| 20260509015104 | 64 | 314 | 0.0 | 1.0 | 0.09 | 0.78 | 0.25 | 76 | 1012.1 |
| 20260509014804 | 64 | 314 | 0.0 | 2.0 | 0.09 | 0.78 | 0.25 | 76 | 1011.9 |
| 20260509014503 | 64 | 290 | 0.0 | 2.0 | 0.09 | 0.78 | 0.25 | 78 | 1012.0 |
| 20260509014203 | 64 | 281 | 0.0 | 2.0 | 0.09 | 0.78 | 0.25 | 78 | 1012.0 |
| 20260509013903 | 64 | 286 | 0.0 | 2.0 | 0.09 | 0.78 | 0.25 | 80 | 1012.0 |
| 20260509013604 | 64 | 254 | 0.0 | 4.0 | 0.09 | 0.78 | 0.25 | 83 | 1012.1 |
| 20260509013004 | 62 | 266 | 0.0 | 6.0 | 0.09 | 0.78 | 0.25 | 86 | 1012.2 |
| 20260509012704 | 61 | 264 | 2.0 | 7.0 | 0.09 | 0.78 | 0.25 | 87 | 1012.1 |
| 20260509012403 | 60 | 252 | 2.0 | 11.0 | 0.09 | 0.78 | 0.25 | 88 | 1012.0 |
| 20260509011803 | 60 | 238 | 2.0 | 11.0 | 0.09 | 0.78 | 0.25 | 86 | 1012.3 |
| 20260509011505 | 60 | 227 | 5.0 | 11.0 | 0.09 | 0.78 | 0.25 | 86 | 1012.2 |
| 20260509011204 | 60 | 193 | 2.0 | 11.0 | 0.09 | 0.78 | 0.25 | 83 | 1012.0 |
| 20260509010906 | 61 | 186 | 4.0 | 11.0 | 0.08 | 0.77 | 0.24 | 81 | 1012.2 |
| 20260509010304 | 63 | 187 | 4.0 | 7.0 | 0.06 | 0.74 | 0.21 | 74 | 1012.1 |
| 20260509010004 | 64 | 188 | 2.0 | 7.0 | 0.06 | 0.74 | 0.21 | 70 | 1012.0 |
| 20260509005704 | 65 | 196 | 4.0 | 8.0 | 0.04 | 0.72 | 0.19 | 67 | 1012.2 |
| 20260509005404 | 66 | 217 | 2.0 | 8.0 | 0.00 | 0.69 | 0.15 | 64 | 1012.2 |
| 20260509005106 | 67 | 233 | 3.0 | 8.0 | 0.00 | 0.69 | 0.15 | 61 | 1012.2 |
| 20260509004503 | 68 | 287 | 2.0 | 8.0 | 0.00 | 0.69 | 0.15 | 61 | 1012.2 |
| 20260509004205 | 67 | 296 | 4.0 | 8.0 | 0.00 | 0.69 | 0.15 | 62 | 1012.3 |
| 20260509003903 | 68 | 278 | 4.0 | 9.0 | 0.00 | 0.69 | 0.15 | 63 | 1012.2 |
| 20260509003604 | 67 | 256 | 4.0 | 11.0 | 0.00 | 0.69 | 0.15 | 62 | 1012.4 |
| 20260509002704 | 68 | 214 | 5.0 | 11.0 | 0.00 | 0.69 | 0.15 | 61 | 1012.6 |
| 20260509002104 | 68 | 240 | 4.0 | 12.0 | 0.00 | 0.69 | 0.15 | 61 | 1012.6 |
| 20260509001803 | 67 | 239 | 3.0 | 12.0 | 0.00 | 0.69 | 0.15 | 62 | 1012.7 |
| 20260509001503 | 67 | 236 | 6.0 | 12.0 | 0.00 | 0.69 | 0.15 | 62 | 1012.6 |
| 20260509001206 | 68 | 229 | 6.0 | 13.0 | 0.00 | 0.69 | 0.15 | 60 | 1012.6 |
| 20260509000904 | 68 | 258 | 4.0 | 13.0 | 0.00 | 0.69 | 0.15 | 63 | 1012.6 |
| 20260509000604 | 67 | 251 | 6.0 | 14.0 | 0.00 | 0.69 | 0.15 | 63 | 1012.8 |
| 20260509000304 | 66 | 285 | 7.0 | 14.0 | 0.00 | 0.69 | 0.15 | 66 | 1012.8 |
| 20260509000004 | 66 | 261 | 4.0 | 14.0 | 0.00 | 0.69 | 0.15 | 62 | 1012.8 |
| 20260508235704 | 68 | 246 | 9.0 | 14.0 | 0.00 | 0.69 | 0.15 | 60 | 1012.9 |
| 20260508235404 | 69 | 226 | 3.0 | 9.0 | 0.00 | 0.69 | 0.15 | 61 | 1012.9 |
| 20260508235103 | 69 | 243 | 3.0 | 10.0 | 0.00 | 0.69 | 0.15 | 62 | 1012.8 |
| 20260508234804 | 68 | 233 | 8.0 | 11.0 | 0.00 | 0.69 | 0.15 | 69 | 1013.1 |
| 20260508234503 | 65 | 228 | 2.0 | 16.0 | 0.00 | 0.69 | 0.15 | 70 | 1013.1 |
| 20260508234204 | 64 | 225 | 6.0 | 16.0 | 0.00 | 0.69 | 0.15 | 69 | 1013.1 |
| 20260508233903 | 64 | 219 | 4.0 | 16.0 | 0.00 | 0.69 | 0.15 | 69 | 1013.2 |
| 20260508233604 | 64 | 252 | 9.0 | 16.0 | 0.00 | 0.69 | 0.15 | 70 | 1013.2 |
| 20260508233004 | 63 | 258 | 5.0 | 17.0 | 0.00 | 0.69 | 0.15 | 72 | 1013.2 |
| 20260508232703 | 63 | 235 | 6.0 | 17.0 | 0.00 | 0.69 | 0.15 | 73 | 1013.2 |
| 20260508232404 | 63 | 247 | 3.0 | 17.0 | 0.00 | 0.69 | 0.15 | 73 | 1013.4 |
| 20260508231804 | 64 | 265 | 8.0 | 15.0 | 0.00 | 0.69 | 0.15 | 73 | 1013.3 |
| 20260508231506 | 64 | 256 | 4.0 | 8.0 | 0.00 | 0.69 | 0.15 | 72 | 1013.4 |
| 20260508230904 | 66 | 248 | 4.0 | 8.0 | 0.00 | 0.69 | 0.15 | 68 | 1013.4 |
| 20260508230603 | 67 | 209 | 4.0 | 8.0 | 0.00 | 0.69 | 0.15 | 64 | 1013.4 |
| 20260508230304 | 69 | 202 | 5.0 | 8.0 | 0.00 | 0.69 | 0.15 | 61 | 1013.5 |
| 20260508230004 | 72 | 209 | 5.0 | 8.0 | 0.00 | 0.69 | 0.15 | 59 | 1013.3 |
| 20260508225704 | 72 | 245 | 2.0 | 6.0 | 0.00 | 0.69 | 0.15 | 61 | 1013.2 |
| 20260508225406 | 71 | 290 | 2.0 | 6.0 | 0.00 | 0.69 | 0.15 | 65 | 1013.4 |
| 20260508225104 | 69 | 310 | 0.0 | 7.0 | 0.00 | 0.69 | 0.15 | 67 | 1013.3 |
| 20260508224804 | 68 | 318 | 1.0 | 7.0 | 0.00 | 0.69 | 0.15 | 69 | 1013.4 |
| 20260508224503 | 66 | 318 | 2.0 | 8.0 | 0.00 | 0.69 | 0.15 | 70 | 1013.4 |
| 20260508224204 | 66 | 315 | 5.0 | 9.0 | 0.00 | 0.69 | 0.15 | 70 | 1013.4 |
| 20260508223904 | 67 | 293 | 3.0 | 9.0 | 0.00 | 0.69 | 0.15 | 65 | 1013.5 |
| 20260508223603 | 69 | 255 | 3.0 | 9.0 | 0.00 | 0.69 | 0.15 | 63 | 1013.5 |